Goshen, IN

10:42 AM EST on December 18, 2017 (GMT -0500)
Goshen Municipal

Weather History for KGSH - December, 2013

Change the Weather History Date:

Tuesday, December 10, 2013

  Actual Average Record
Temperature  
Mean Temperature 13 °F -  
Max Temperature 23 °F 36 °F 65 °F (1971)
Min Temperature 3 °F 24 °F -13 °F (1958)
Degree Days  
Heating Degree Days 52    
Moisture  
Dew Point 6 °F    
Average Humidity 65    
Maximum Humidity 76    
Minimum Humidity 54    
Precipitation  
Precipitation 0.00 in - - ()
Sea Level Pressure  
Sea Level Pressure 30.15 in    
Wind  
Wind Speed 14 mph (WSW)    
Max Wind Speed 25 mph    
Max Gust Speed 37 mph    
Visibility 10 miles    
Events      
Averages and records for this station are not official NWS values.
T = Trace of Precipitation, MM = Missing Value Source: NWS Daily Summary

Daily Weather History Graph

Daily Weather History Graph

Search for Another Location

Airport or City:

Trip Planner

Search our weather history database for the weather conditions in past years. The results will help you decide how hot, cold, wet, or windy it might be!

Date:

Astronomy

Dec. 10, 2013 Rise Set
Actual Time 7:58 AM EST 5:13 PM EST
Civil Twilight 7:27 AM EST 5:44 PM EST
Nautical Twilight 6:52 AM EST 6:19 PM EST
Astronomical Twilight 6:19 AM EST 6:52 PM EST
Moon 1:18 PM EST (12/10) 1:12 AM EST (12/10)
Length of Visible Light 10h 16m
Length of Day
9h 14m
First Quarter, 61% of the Moon is Illuminated
Dec 10
First Quarter
Dec 17
Full
Dec 25
Last Quarter
Jan 1
New
Jan 7
First Quarter

Hourly Weather History & Observations

Time (EST) Temp. Windchill Dew Point Humidity Pressure Visibility Wind Dir Wind Speed Gust Speed Precip Events Conditions
12:53 AM 14.0 °F -0.2 °F 5.0 °F 67% 30.22 in 10.0 mi WSW 12.7 mph - N/A   Clear
1:53 AM 12.0 °F -2.0 °F 3.9 °F 70% 30.22 in 10.0 mi WSW 11.5 mph - N/A   Scattered Clouds
2:01 AM 10.4 °F -1.5 °F 3.2 °F 73% 30.17 in 10.0 mi WSW 8.1 mph - N/A   Mostly Cloudy
2:13 AM 10.4 °F -1.5 °F 3.2 °F 73% 30.17 in 10.0 mi WSW 8.1 mph - N/A   Scattered Clouds
2:53 AM 10.0 °F -3.7 °F 1.9 °F 70% 30.20 in 10.0 mi WSW 10.4 mph - N/A   Clear
3:53 AM 8.1 °F -4.3 °F 1.0 °F 73% 30.19 in 10.0 mi WSW 8.1 mph - N/A   Clear
4:53 AM 7.0 °F -5.7 °F -0.0 °F 73% 30.19 in 10.0 mi WSW 8.1 mph - N/A   Clear
5:53 AM 5.0 °F -6.9 °F -2.0 °F 73% 30.18 in 10.0 mi SW 6.9 mph - N/A   Clear
6:53 AM 3.0 °F -9.3 °F -2.9 °F 76% 30.17 in 10.0 mi SSW 6.9 mph - N/A   Clear
7:53 AM 3.0 °F -10.5 °F -4.0 °F 73% 30.15 in 10.0 mi South 8.1 mph - N/A   Clear
8:53 AM 6.1 °F -10.9 °F -2.0 °F 69% 30.13 in 10.0 mi SSW 13.8 mph - N/A   Overcast
9:53 AM 10.9 °F -5.4 °F 1.0 °F 64% 30.13 in 10.0 mi SW 15.0 mph - N/A   Overcast
10:53 AM 16.0 °F -0.4 °F 3.9 °F 59% 30.08 in 10.0 mi SSW 18.4 mph 26.5 mph N/A   Overcast
11:53 AM 19.0 °F 2.4 °F 5.0 °F 54% 30.08 in 10.0 mi SW 21.9 mph 31.1 mph N/A   Mostly Cloudy
12:53 PM 21.0 °F 3.9 °F 9.0 °F 60% 30.06 in 10.0 mi WSW 25.3 mph 36.8 mph 0.00 in   Overcast
1:25 PM 23.0 °F 7.6 °F 10.4 °F 59% 30.02 in 10.0 mi WSW 21.9 mph 27.6 mph N/A   Mostly Cloudy
1:44 PM 23.0 °F 7.2 °F 10.4 °F 59% 30.01 in 10.0 mi WSW 23.0 mph 33.4 mph N/A   Scattered Clouds
1:53 PM 23.0 °F 6.6 °F 10.0 °F 58% 30.05 in 10.0 mi WSW 25.3 mph 33.4 mph N/A   Mostly Cloudy
2:53 PM 23.0 °F 7.6 °F 10.0 °F 58% 30.07 in 10.0 mi WSW 21.9 mph 31.1 mph N/A   Mostly Cloudy
3:44 PM 21.2 °F 4.2 °F 10.4 °F 63% 30.05 in 10.0 mi West 25.3 mph 35.7 mph N/A   Mostly Cloudy
3:53 PM 23.0 °F 7.6 °F 10.9 °F 60% 30.11 in 10.0 mi WSW 21.9 mph 35.7 mph N/A   Mostly Cloudy
4:00 PM 21.2 °F 4.9 °F 10.4 °F 63% 30.07 in 10.0 mi West 23.0 mph 32.2 mph N/A   Mostly Cloudy
4:38 PM 21.2 °F 5.6 °F 10.4 °F 63% 30.08 in 10.0 mi WSW 20.7 mph 29.9 mph N/A   Mostly Cloudy
4:53 PM 21.9 °F 6.9 °F 10.0 °F 60% 30.14 in 10.0 mi WSW 19.6 mph 29.9 mph N/A   Scattered Clouds
5:53 PM 21.0 °F 8.6 °F 9.0 °F 60% 30.17 in 10.0 mi WSW 12.7 mph - N/A   Clear
6:53 PM 19.9 °F 6.7 °F 10.9 °F 68% 30.20 in 10.0 mi West 13.8 mph - N/A   Clear
7:53 PM 19.0 °F 5.6 °F 8.1 °F 62% 30.21 in 10.0 mi WSW 13.8 mph - N/A   Clear
8:53 PM 18.0 °F 3.6 °F 8.1 °F 65% 30.24 in 10.0 mi West 15.0 mph - N/A   Clear
9:53 PM 17.1 °F 3.6 °F 7.0 °F 65% 30.27 in 10.0 mi WSW 12.7 mph - N/A   Clear
10:53 PM 18.0 °F 3.6 °F 8.1 °F 65% 30.27 in 10.0 mi WSW 15.0 mph - N/A   Scattered Clouds
11:53 PM 18.0 °F 4.2 °F 7.0 °F 62% 30.30 in 10.0 mi WSW 13.8 mph - N/A   Overcast